N0HEQ Weather Reports


time (UTC)temp
C
wind
direction
speed
KPH
gust
KPH
rain 1hr
cm
rain 24hr
cm
rain mn
cm
humidity
%
barometer
mb
20260906220413 32 32 3.2 6.4 0.00 0.00 0.00 34 1018.7
20260906220106 -17 0.0 0.0 0.00 0.00 0.00 1016.6
20260906215912 32 229 3.2 6.4 0.00 0.00 0.00 32 1019.0
20260906215407 32 106 0.0 4.8 0.00 0.00 0.00 34 1018.9
20260906214906 32 98 4.8 8.0 0.00 0.00 0.00 31 1018.9
20260906214559 -17 0.0 0.0 0.00 0.00 0.00 1016.6
20260906214404 32 53 0.0 3.2 0.00 0.00 0.00 33 1018.9
20260906213859 32 33 3.2 6.4 0.00 0.00 0.00 34 1019.2
20260906213359 32 50 4.8 11.3 0.00 0.00 0.00 32 1019.3
20260906213102 -17 0.0 0.0 0.00 0.00 0.00 1016.8
20260906212856 32 53 0.0 6.4 0.00 0.00 0.00 33 1019.4
20260906212352 32 64 3.2 3.2 0.00 0.00 0.00 33 1019.3
20260906211851 32 57 4.8 6.4 0.00 0.00 0.00 34 1019.4
20260906211607 -17 0.0 0.0 0.00 0.00 0.00 1016.9
20260906211347 32 68 3.2 6.4 0.00 0.00 0.00 32 1019.4
20260906210842 32 39 6.4 9.7 0.00 0.00 0.00 34 1019.4
20260906210337 32 60 4.8 8.0 0.00 0.00 0.00 33 1019.5
20260906210100 -17 0.0 0.0 0.00 0.00 0.00 1017.1
20260906205832 32 51 3.2 4.8 0.00 0.00 0.00 32 1019.8
20260906205328 32 313 3.2 8.0 0.00 0.00 0.00 34 1019.6
20260906204824 32 18 3.2 4.8 0.00 0.00 0.00 35 1019.6
20260906204608 -17 0.0 0.0 0.00 0.00 0.00 1017.3
20260906204323 32 96 1.6 6.4 0.00 0.00 0.00 34 1019.8
20260906203822 32 19 0.0 3.2 0.00 0.00 0.00 35 1019.9
20260906203318 32 28 4.8 4.8 0.00 0.00 0.00 34 1019.9
20260906203101 -17 0.0 0.0 0.00 0.00 0.00 1017.5
20260906202815 32 238 0.0 3.2 0.00 0.00 0.00 36 1020.0
20260906202314 32 75 3.2 4.8 0.00 0.00 0.00 32 1020.0
20260906201809 31 35 3.2 4.8 0.00 0.00 0.00 35 1020.1
20260906201612 -17 0.0 0.0 0.00 0.00 0.00 1017.7
20260906201308 31 24 3.2 8.0 0.00 0.00 0.00 34 1020.5
20260906200804 31 33 3.2 6.4 0.00 0.00 0.00 39 1020.3
20260906200300 31 98 0.0 8.0 0.00 0.00 0.00 35 1020.3
20260906200057 -17 0.0 0.0 0.00 0.00 0.00 1017.8
20260906195755 30 43 1.6 6.4 0.00 0.00 0.00 35 1020.6
20260906195251 30 30 3.2 4.8 0.00 0.00 0.00 36 1020.2
20260906194747 30 78 3.2 8.0 0.00 0.00 0.00 35 1020.6
20260906194557 -17 0.0 0.0 0.00 0.00 0.00 1018.1
20260906194243 30 19 0.0 3.2 0.00 0.00 0.00 36 1020.5
20260906193742 30 29 3.2 4.8 0.00 0.00 0.00 37 1020.8
20260906193237 30 162 0.0 3.2 0.00 0.00 0.00 37 1020.8
20260906193053 -17 0.0 0.0 0.00 0.00 0.00 1018.4
20260906192734 30 37 1.6 4.8 0.00 0.00 0.00 37 1021.0
20260906192228 29 54 4.8 4.8 0.00 0.00 0.00 36 1021.0
20260906191727 29 293 0.0 3.2 0.00 0.00 0.00 39 1021.0
20260906191602 -17 0.0 0.0 0.00 0.00 0.00 1018.7
20260906191222 30 16 1.6 4.8 0.00 0.00 0.00 35 1021.4
20260906190721 28 54 3.2 3.2 0.00 0.00 0.00 36 1021.5
20260906190216 28 62 1.6 4.8 0.00 0.00 0.00 36 1021.4
20260906190107 -17 0.0 0.0 0.00 0.00 0.00 1018.9
20260906185715 28 53 6.4 6.4 0.00 0.00 0.00 36 1021.5
20260906185214 28 354 1.6 4.8 0.00 0.00 0.00 43 1021.6
20260906184709 28 340 1.6 3.2 0.00 0.00 0.00 42 1021.8
20260906184601 -17 0.0 0.0 0.00 0.00 0.00 1019.3
20260906184204 28 48 4.8 4.8 0.00 0.00 0.00 40 1021.9
20260906183700 28 36 3.2 4.8 0.00 0.00 0.00 44 1021.9
20260906183156 28 36 1.6 4.8 0.00 0.00 0.00 44 1022.0
20260906183110 -17 0.0 0.0 0.00 0.00 0.00 1019.6
20260906182656 27 15 1.6 3.2 0.00 0.00 0.00 41 1022.1
20260906182152 28 22 1.6 3.2 0.00 0.00 0.00 43 1022.2
20260906181647 27 7 1.6 4.8 0.00 0.00 0.00 45 1022.3
20260906181604 -17 0.0 0.0 0.00 0.00 0.00 1019.9
20260906181143 27 356 1.6 3.2 0.00 0.00 0.00 46 1022.3
20260906180639 27 112 1.6 8.0 0.00 0.00 0.00 45 1022.6
20260906180138 26 61 1.6 3.2 0.00 0.00 0.00 45 1022.6
20260906180121 -17 0.0 0.0 0.00 0.00 0.00 1020.3
20260906175637 26 65 3.2 3.2 0.00 0.00 0.00 45 1022.6
20260906175132 26 240 1.6 3.2 0.00 0.00 0.00 50 1022.8
20260906174630 26 56 3.2 3.2 0.00 0.00 0.00 46 1022.8
20260906174554 -17 0.0 0.0 0.00 0.00 0.00 1020.6
20260906174125 26 67 3.2 4.8 0.00 0.00 0.00 47 1023.1
20260906173620 26 21 1.6 3.2 0.00 0.00 0.00 48 1023.2
20260906173116 26 49 0.0 3.2 0.00 0.00 0.00 49 1023.4
20260906173109 -17 0.0 0.0 0.00 0.00 0.00 1020.9
20260906172615 26 318 0.0 3.2 0.00 0.00 0.00 48 1023.4
20260906172111 25 227 0.0 1.6 0.00 0.00 0.00 48 1023.3
20260906171610 25 231 1.6 3.2 0.00 0.00 0.00 51 1023.4
20260906171559 -17 0.0 0.0 0.00 0.00 0.00 1021.1
20260906171106 25 348 0.0 4.8 0.00 0.00 0.00 52 1023.9
20260906170602 25 317 0.0 3.2 0.00 0.00 0.00 49 1023.8
20260906170117 -17 0.0 0.0 0.00 0.00 0.00 1021.4
20260906165559 24 48 0.0 3.2 0.00 0.00 0.00 50 1023.8
20260906165059 23 53 1.6 3.2 0.00 0.00 0.00 52 1023.9
20260906164603 -17 0.0 0.0 0.00 0.00 0.00 1021.4
20260906164558 23 22 0.0 3.2 0.00 0.00 0.00 51 1023.6
20260906164054 23 258 0.0 3.2 0.00 0.00 0.00 51 1024.0
20260906163549 23 42 1.6 3.2 0.00 0.00 0.00 57 1023.9
20260906163101 -17 0.0 0.0 0.00 0.00 0.00 1021.6
20260906163045 23 62 3.2 3.2 0.00 0.00 0.00 56 1023.9
20260906162542 22 19 0.0 3.2 0.00 0.00 0.00 59 1024.1
20260906162037 22 50 0.0 1.6 0.00 0.00 0.00 61 1024.2
20260906161554 -17 0.0 0.0 0.00 0.00 0.00 1021.6
20260906161532 22 300 1.6 3.2 0.00 0.00 0.00 61 1024.1
20260906161030 22 215 3.2 4.8 0.00 0.00 0.00 61 1024.0
20260906160530 21 221 0.0 3.2 0.00 0.00 0.00 65 1024.0
20260906160053 -17 0.0 0.0 0.00 0.00 0.00 1021.7
20260906160029 21 239 3.2 3.2 0.00 0.00 0.00 65 1024.1
20260906155526 21 209 3.2 3.2 0.00 0.00 0.00 66 1024.0
20260906155022 21 36 0.0 3.2 0.00 0.00 0.00 64 1024.0
20260906154602 -17 0.0 0.0 0.00 0.00 0.00 1021.6
20260906154518 20 280 0.0 3.2 0.00 0.00 0.00 65 1023.8
20260906154016 20 249 0.0 3.2 0.00 0.00 0.00 67 1024.0
20260906153516 20 5 0.0 3.2 0.00 0.00 0.00 69 1023.9
20260906153055 -17 0.0 0.0 0.00 0.00 0.00 1021.8
20260906153011 20 19 0.0 1.6 0.00 0.00 0.00 69 1024.5
20260906152505 20 322 0.0 3.2 0.00 0.00 0.00 67 1024.1
20260906152004 20 76 0.0 1.6 0.00 0.00 0.00 69 1024.2
20260906151608 -17 0.0 0.0 0.00 0.00 0.00 1022.0
20260906151500 20 202 0.0 3.2 0.00 0.00 0.00 69 1024.1
20260906150955 19 142 0.0 1.6 0.00 0.00 0.00 71 1024.2
20260906150450 19 293 0.0 3.2 0.00 0.00 0.00 69 1024.2
20260906150105 -17 0.0 0.0 0.00 0.00 0.00 1022.0
20260906145949 19 241 0.0 3.2 0.00 0.00 0.00 69 1024.1
20260906145444 18 185 0.0 0.0 0.00 0.00 0.00 70 1024.2
20260906144944 18 42 1.6 4.8 0.00 0.00 0.00 70 1024.1
20260906144555 -17 0.0 0.0 0.00 0.00 0.00 1021.9
20260906144439 18 222 3.2 3.2 0.00 0.00 0.00 70 1024.2
20260906143934 18 48 1.6 4.8 0.00 0.00 0.00 70 1024.0
20260906143429 18 160 0.0 3.2 0.00 0.00 0.00 69 1024.2
20260906143119 -17 0.0 0.0 0.00 0.00 0.00 1021.9
20260906142925 18 142 0.0 4.8 0.00 0.00 0.00 72 1024.0
20260906142425 18 297 0.0 4.8 0.00 0.00 0.00 73 1024.1
20260906141920 17 215 0.0 1.6 0.00 0.00 0.00 75 1024.1
20260906141607 -17 0.0 0.0 0.00 0.00 0.00 1022.0
20260906141420 17 51 3.2 3.2 0.00 0.00 0.00 77 1024.1
20260906140914 17 55 0.0 3.2 0.00 0.00 0.00 78 1024.5
20260906140409 17 62 3.2 3.2 0.00 0.00 0.00 80 1024.2
20260906140059 -17 0.0 0.0 0.00 0.00 0.00 1022.1
20260906135907 17 243 0.0 3.2 0.00 0.00 0.00 80 1024.3
20260906135406 16 242 1.6 1.6 0.00 0.00 0.00 82 1024.2
20260906134902 16 223 0.0 3.2 0.00 0.00 0.00 82 1024.1
20260906134600 -17 0.0 0.0 0.00 0.00 0.00 1021.9
20260906134357 16 89 0.0 0.0 0.00 0.00 0.00 83 1024.0
20260906133852 16 230 0.0 0.0 0.00 0.00 0.00 82 1024.0
20260906133348 16 49 0.0 1.6 0.00 0.00 0.00 82 1024.0
20260906133109 -17 0.0 0.0 0.00 0.00 0.00 1021.8
20260906132843 15 37 0.0 0.0 0.00 0.00 0.00 81 1024.0
20260906132338 15 129 0.0 0.0 0.00 0.00 0.00 81 1024.0
20260906131834 15 129 0.0 0.0 0.00 0.00 0.00 83 1024.2
20260906131602 -17 0.0 0.0 0.00 0.00 0.00 1021.8
20260906131329 14 89 0.0 1.6 0.00 0.00 0.00 83 1023.9
20260906130825 14 70 0.0 1.6 0.00 0.00 0.00 83 1023.6
20260906130324 14 59 0.0 1.6 0.00 0.00 0.00 83 1023.8
20260906130058 -17 0.0 0.0 0.00 0.00 0.00 1021.4
20260906125823 14 66 0.0 3.2 0.00 0.00 0.00 83 1023.8
20260906125321 14 83 0.0 3.2 0.00 0.00 0.00 83 1023.8
20260906124816 14 66 0.0 1.6 0.00 0.00 0.00 82 1023.5
20260906124605 -17 0.0 0.0 0.00 0.00 0.00 1021.1
20260906124312 14 118 0.0 1.6 0.00 0.00 0.00 82 1023.6
20260906123810 14 89 0.0 1.6 0.00 0.00 0.00 82 1023.5
20260906123306 14 55 0.0 3.2 0.00 0.00 0.00 81 1023.5
20260906123128 -17 0.0 0.0 0.00 0.00 0.00 1020.9
20260906122805 14 87 0.0 1.6 0.00 0.00 0.00 81 1023.6
20260906122301 14 89 0.0 0.0 0.00 0.00 0.00 81 1023.5
20260906121757 14 63 0.0 1.6 0.00 0.00 0.00 80 1023.5
20260906121600 -17 0.0 0.0 0.00 0.00 0.00 1021.1
20260906121253 14 53 0.0 3.2 0.00 0.00 0.00 81 1023.4
20260906120749 14 44 0.0 1.6 0.00 0.00 0.00 80 1023.3
20260906120245 15 101 1.6 3.2 0.00 0.00 0.00 80 1023.5
20260906120058 -17 0.0 0.0 0.00 0.00 0.00 1021.0
20260906115741 15 106 0.0 1.6 0.00 0.00 0.00 80 1023.8
20260906115236 15 129 0.0 0.0 0.00 0.00 0.00 79 1023.3
20260906114734 15 57 0.0 1.6 0.00 0.00 0.00 79 1023.6
20260906114610 -17 0.0 0.0 0.00 0.00 0.00 1021.3
20260906114230 15 69 0.0 3.2 0.00 0.00 0.00 79 1023.6
20260906113726 15 142 0.0 3.2 0.00 0.00 0.00 79 1023.5
20260906113225 15 124 0.0 1.6 0.00 0.00 0.00 79 1023.4
20260906113054 -17 0.0 0.0 0.00 0.00 0.00 1021.2
20260906112724 15 66 0.0 3.2 0.00 0.00 0.00 79 1023.6
20260906112222 15 108 1.6 3.2 0.00 0.00 0.00 79 1023.5
20260906111721 15 66 0.0 1.6 0.00 0.00 0.00 79 1023.2
20260906111601 -17 0.0 0.0 0.00 0.00 0.00 1021.0
20260906111215 15 142 0.0 1.6 0.00 0.00 0.00 80 1023.4
20260906110710 15 129 0.0 1.6 0.00 0.00 0.00 77 1023.4
20260906110206 15 89 0.0 3.2 0.00 0.00 0.00 76 1023.4
20260906110054 -17 0.0 0.0 0.00 0.00 0.00 1020.9
20260906105705 15 89 0.0 3.2 0.00 0.00 0.00 76 1023.1
20260906105202 15 50 0.0 1.6 0.00 0.00 0.00 76 1023.2
20260906104701 15 58 3.2 3.2 0.00 0.00 0.00 75 1023.2
20260906104604 -17 0.0 0.0 0.00 0.00 0.00 1020.7
20260906104200 16 173 0.0 0.0 0.00 0.00 0.00 74 1023.2
20260906103658 15 122 0.0 3.2 0.00 0.00 0.00 74 1023.1
20260906103154 16 141 0.0 0.0 0.00 0.00 0.00 74 1022.9
20260906103057 -17 0.0 0.0 0.00 0.00 0.00 1020.6
20260906102649 16 47 1.6 1.6 0.00 0.00 0.00 74 1022.9
20260906102148 16 205 0.0 1.6 0.00 0.00 0.00 74 1022.9
20260906101648 16 59 1.6 3.2 0.00 0.00 0.00 74 1022.9
20260906101554 -17 0.0 0.0 0.00 0.00 0.00 1020.5
20260906101143 16 83 0.0 1.6 0.00 0.00 0.00 73 1022.9
20260906100638 16 54 0.0 1.6 0.00 0.00 0.00 73 1022.9
20260906100134 16 103 0.0 1.6 0.00 0.00 0.00 72 1022.7
20260906100053 -17 0.0 0.0 0.00 0.00 0.00 1020.4
20260906095634 16 70 1.6 3.2 0.00 0.00 0.00 72 1023.2
20260906095129 16 60 0.0 3.2 0.00 0.00 0.00 71 1022.9
20260906094628 16 84 1.6 1.6 0.00 0.00 0.00 71 1023.1
20260906094608 -17 0.0 0.0 0.00 0.00 0.00 1020.6
20260906094124 16 29 0.0 1.6 0.00 0.00 0.00 70 1022.9
20260906093620 16 36 0.0 3.2 0.00 0.00 0.00 70 1022.8
20260906093120 16 246 0.0 0.0 0.00 0.00 0.00 70 1022.8
20260906093057 -17 0.0 0.0 0.00 0.00 0.00 1020.5
20260906092615 16 55 0.0 1.6 0.00 0.00 0.00 70 1022.8
20260906092110 16 123 0.0 1.6 0.00 0.00 0.00 70 1022.9
20260906091606 16 113 0.0 1.6 0.00 0.00 0.00 70 1022.8
20260906091603 -17 0.0 0.0 0.00 0.00 0.00 1020.4
20260906091103 16 89 0.0 1.6 0.00 0.00 0.00 69 1022.7
20260906090602 17 60 0.0 3.2 0.00 0.00 0.00 69 1022.7
20260906090054 -17 0.0 0.0 0.00 0.00 0.00 1020.5
20260906085601 17 129 0.0 0.0 0.00 0.00 0.00 68 1022.8
20260906085056 17 315 0.0 0.0 0.00 0.00 0.00 67 1022.7
20260906084605 -17 0.0 0.0 0.00 0.00 0.00 1020.2
20260906084551 17 55 0.0 0.0 0.00 0.00 0.00 67 1022.6
20260906084049 17 55 0.0 1.6 0.00 0.00 0.00 67 1022.6
20260906083545 17 48 0.0 1.6 0.00 0.00 0.00 67 1022.3
20260906083057 -17 0.0 0.0 0.00 0.00 0.00 1020.2
20260906083045 17 61 1.6 3.2 0.00 0.00 0.00 67 1022.7
20260906082540 17 84 0.0 1.6 0.00 0.00 0.00 66 1022.7
20260906082036 17 103 0.0 1.6 0.00 0.00 0.00 66 1022.7
20260906081555 -17 0.0 0.0 0.00 0.00 0.00 1020.4
20260906081532 17 110 0.0 3.2 0.00 0.00 0.00 65 1022.8
20260906081027 18 39 0.0 1.6 0.00 0.00 0.00 64 1022.8
20260906080523 18 113 0.0 1.6 0.00 0.00 0.00 64 1022.7
20260906080019 18 38 0.0 1.6 0.00 0.00 0.00 65 1022.8
20260906075513 18 58 0.0 1.6 0.00 0.00 0.00 63 1022.8
20260906075008 18 40 0.0 3.2 0.00 0.00 0.00 62 1022.5
20260906074607 -17 0.0 0.0 0.00 0.00 0.00 1020.2
20260906074503 19 101 0.0 3.2 0.00 0.00 0.00 62 1022.7
20260906074001 19 50 0.0 3.2 0.00 0.00 0.00 60 1022.6
20260906073455 20 50 0.0 1.6 0.00 0.00 0.00 58 1022.3
20260906073059 -17 0.0 0.0 0.00 0.00 0.00 1020.1
20260906072952 20 37 0.0 0.0 0.00 0.00 0.00 57 1022.7
20260906072447 20 95 0.0 1.6 0.00 0.00 0.00 56 1022.6
20260906071943 20 208 0.0 3.2 0.00 0.00 0.00 55 1022.3
20260906071556 -17 0.0 0.0 0.00 0.00 0.00 1019.9
20260906071439 20 206 3.2 3.2 0.00 0.00 0.00 54 1022.5
20260906070935 20 136 1.6 4.8 0.00 0.00 0.00 54 1022.7
20260906070430 20 89 0.0 3.2 0.00 0.00 0.00 53 1022.6
20260906070104 -17 0.0 0.0 0.00 0.00 0.00 1019.7
20260906065926 20 236 0.0 1.6 0.00 0.00 0.00 52 1022.5
20260906065420 20 157 0.0 0.0 0.00 0.00 0.00 52 1022.2
20260906064916 20 235 0.0 3.2 0.00 0.00 0.00 51 1022.2
20260906064556 -17 0.0 0.0 0.00 0.00 0.00 1019.8
20260906064413 21 38 0.0 1.6 0.00 0.00 0.00 51 1022.5
20260906063912 21 135 0.0 0.0 0.00 0.00 0.00 50 1022.6
20260906063407 21 164 0.0 1.6 0.00 0.00 0.00 50 1022.5
20260906063059 -17 0.0 0.0 0.00 0.00 0.00 1019.9
20260906062902 22 15 0.0 1.6 0.00 0.00 0.00 48 1022.5
20260906062401 21 39 0.0 3.2 0.00 0.00 0.00 48 1022.6
20260906061857 21 22 0.0 3.2 0.00 0.00 0.00 48 1022.7
20260906061607 -17 0.0 0.0 0.00 0.00 0.00 1020.0
20260906061354 21 37 0.0 0.0 0.00 0.00 0.00 48 1022.8
20260906060848 22 322 0.0 3.2 0.00 0.00 0.00 47 1022.9
20260906060346 22 22 0.0 1.6 0.00 0.00 0.00 46 1023.2
20260906055841 22 44 0.0 0.0 0.00 0.00 0.00 47 1023.3
20260906055337 22 29 0.0 1.6 0.00 0.00 0.00 46 1022.9
20260906054832 22 48 1.6 1.6 0.00 0.00 0.00 45 1023.2
20260906054557 -17 0.0 0.0 0.00 0.00 0.00 1020.5
20260906054327 22 106 0.0 1.6 0.00 0.00 0.00 46 1023.1
20260906053823 22 26 0.0 1.6 0.00 0.00 0.00 46 1023.1
20260906053319 22 212 3.2 3.2 0.00 0.00 0.00 45 1023.4
20260906053108 -17 0.0 0.0 0.00 0.00 0.00 1020.7
20260906052814 22 62 0.0 1.6 0.00 0.00 0.00 45 1023.3
20260906052310 22 89 0.0 0.0 0.00 0.00 0.00 42 1023.4
20260906051807 23 55 0.0 1.6 0.00 0.00 0.00 42 1023.4
20260906051601 -17 0.0 0.0 0.00 0.00 0.00 1020.6
20260906051306 23 13 0.0 0.0 0.00 0.00 0.00 43 1023.3
20260906050802 23 269 0.0 1.6 0.00 0.00 0.00 41 1023.1
20260906050257 23 336 0.0 0.0 0.00 0.00 0.00 40 1023.1
20260906050057 -17 0.0 0.0 0.00 0.00 0.00 1020.3
20260906045756 23 336 0.0 3.2 0.00 0.00 0.00 39 1022.9
20260906045250 23 44 0.0 1.6 0.00 0.00 0.00 40 1023.1
20260906044747 23 283 0.0 1.6 0.00 0.00 0.00 41 1023.2
20260906044600 -17 0.0 0.0 0.00 0.00 0.00 1020.6
20260906044241 23 303 0.0 1.6 0.00 0.00 0.00 41 1023.3
20260906043737 23 333 0.0 0.0 0.00 0.00 0.00 38 1023.3
20260906043233 24 37 0.0 0.0 0.00 0.00 0.00 37 1023.2
20260906043103 -17 0.0 0.0 0.00 0.00 0.00 1020.7
20260906042733 24 55 0.0 0.0 0.00 0.00 0.00 37 1022.9
20260906042231 24 62 0.0 1.6 0.00 0.00 0.00 36 1023.1
20260906041727 24 112 0.0 4.8 0.00 0.00 0.00 36 1022.8
20260906041558 -17 0.0 0.0 0.00 0.00 0.00 1020.5
20260906041223 23 154 0.0 3.2 0.00 0.00 0.00 40 1022.9
20260906040718 23 111 0.0 3.2 0.00 0.00 0.00 39 1022.7
20260906040213 23 202 0.0 3.2 0.00 0.00 0.00 40 1022.8
20260906040117 -17 0.0 0.0 0.00 0.00 0.00 1020.2
20260906035709 22 103 0.0 1.6 0.00 0.00 0.00 42 1022.7
20260906035205 21 336 1.6 3.2 0.00 0.00 0.00 44 1022.6
20260906034704 21 133 1.6 1.6 0.00 0.00 0.00 44 1022.2
20260906034607 -17 0.0 0.0 0.00 0.00 0.00 1019.7
20260906034159 21 124 0.0 0.0 0.00 0.00 0.00 42 1022.0
20260906033655 22 117 0.0 0.0 0.00 0.00 0.00 43 1022.0
20260906033156 22 142 0.0 0.0 0.00 0.00 0.00 41 1022.0
20260906033111 -17 0.0 0.0 0.00 0.00 0.00 1019.5
20260906032652 22 55 0.0 0.0 0.00 0.00 0.00 41 1021.9
20260906032152 22 55 0.0 0.0 0.00 0.00 0.00 41 1021.9
20260906031647 22 55 0.0 0.0 0.00 0.00 0.00 40 1021.5
20260906031606 -17 0.0 0.0 0.00 0.00 0.00 1019.4
20260906031143 22 50 0.0 0.0 0.00 0.00 0.00 41 1021.6
20260906030642 22 50 0.0 0.0 0.00 0.00 0.00 40 1021.8
20260906030137 22 50 0.0 0.0 0.00 0.00 0.00 40 1021.4
20260906030106 -17 0.0 0.0 0.00 0.00 0.00 1019.1
20260906025637 22 50 0.0 0.0 0.00 0.00 0.00 40 1021.3
20260906025136 23 37 0.0 0.0 0.00 0.00 0.00 41 1021.4
20260906024631 23 37 0.0 0.0 0.00 0.00 0.00 40 1021.2
20260906024601 -17 0.0 0.0 0.00 0.00 0.00 1018.7
20260906024131 23 43 0.0 1.6 0.00 0.00 0.00 39 1021.0
20260906023627 23 50 0.0 0.0 0.00 0.00 0.00 38 1021.4
20260906023126 23 50 0.0 0.0 0.00 0.00 0.00 38 1021.3
20260906023056 -17 0.0 0.0 0.00 0.00 0.00 1018.9
20260906022622 24 75 0.0 1.6 0.00 0.00 0.00 37 1021.3
20260906022117 24 50 0.0 0.0 0.00 0.00 0.00 36 1021.3
20260906021613 25 50 0.0 0.0 0.00 0.00 0.00 37 1021.4
20260906021607 -17 0.0 0.0 0.00 0.00 0.00 1018.9
20260906021112 25 55 0.0 0.0 0.00 0.00 0.00 34 1021.3
20260906020611 25 62 0.0 0.0 0.00 0.00 0.00 35 1021.3
20260906020108 -17 0.0 0.0 0.00 0.00 0.00 1018.6
20260906020106 25 37 0.0 0.0 0.00 0.00 0.00 35 1021.2
20260906015606 25 269 0.0 0.0 0.00 0.00 0.00 37 1020.9
20260906015105 25 306 1.6 1.6 0.00 0.00 0.00 36 1020.9
20260906014601 -17 0.0 0.0 0.00 0.00 0.00 1018.3
20260906014056 25 261 0.0 1.6 0.00 0.00 0.00 38 1020.9
20260906013551 25 322 0.0 0.0 0.00 0.00 0.00 36 1020.5
20260906013110 -17 0.0 0.0 0.00 0.00 0.00 1018.0
20260906013046 25 322 0.0 0.0 0.00 0.00 0.00 35 1020.3
20260906012541 26 322 0.0 0.0 0.00 0.00 0.00 34 1020.5
20260906012041 26 343 0.0 0.0 0.00 0.00 0.00 34 1020.5
20260906011608 -17 0.0 0.0 0.00 0.00 0.00 1017.8
20260906011537 26 343 0.0 0.0 0.00 0.00 0.00 33 1020.5
20260906011037 26 343 0.0 0.0 0.00 0.00 0.00 33 1020.5
20260906010532 27 343 0.0 0.0 0.00 0.00 0.00 32 1020.2
20260906010029 27 343 0.0 0.0 0.00 0.00 0.00 31 1020.5
20260906005527 28 343 0.0 0.0 0.00 0.00 0.00 30 1020.5
20260906005026 28 343 0.0 0.0 0.00 0.00 0.00 29 1020.6
20260906004604 -17 0.0 0.0 0.00 0.00 0.00 1018.0
20260906004526 28 343 0.0 0.0 0.00 0.00 0.00 28 1020.3
20260906004021 29 343 0.0 1.6 0.00 0.00 0.00 28 1020.6
20260906003517 30 44 0.0 1.6 0.00 0.00 0.00 29 1020.5
20260906003106 -17 0.0 0.0 0.00 0.00 0.00 1018.0
20260906003013 30 53 0.0 0.0 0.00 0.00 0.00 25 1020.5
20260906002513 30 329 0.0 0.0 0.00 0.00 0.00 26 1020.5
20260906002008 30 0 0.0 0.0 0.00 0.00 0.00 24 1020.5
20260906001555 -17 0.0 0.0 0.00 0.00 0.00 1018.0
20260906001504 31 37 0.0 0.0 0.00 0.00 0.00 27 1020.5
20260906000957 31 28 1.6 1.6 0.00 0.00 0.00 27 1020.3
20260906000455 31 298 0.0 1.6 0.00 0.00 0.00 27 1020.1
20260906000106 -17 0.0 0.0 0.00 0.00 0.00 1017.8
20260905235948 31 201 0.0 3.2 0.00 0.00 0.00 26 1020.2
20260905235448 31 10 0.0 3.2 0.00 0.00 0.00 24 1020.3
20260905234943 31 56 1.6 1.6 0.00 0.00 0.00 24 1020.1
20260905234558 -17 0.0 0.0 0.00 0.00 0.00 1017.7
20260905234439 32 42 1.6 3.2 0.00 0.00 0.00 26 1020.2
20260905233938 32 333 0.0 1.6 0.00 0.00 0.00 23 1020.2
20260905233434 33 326 0.0 1.6 0.00 0.00 0.00 22 1020.2
20260905233106 -17 0.0 0.0 0.00 0.00 0.00 1017.7
20260905232932 33 222 1.6 4.8 0.00 0.00 0.00 24 1020.2
20260905232429 34 247 3.2 4.8 0.00 0.00 0.00 21 1020.3
20260905231924 34 215 0.0 3.2 0.00 0.00 0.00 24 1020.2
20260905231606 -17 0.0 0.0 0.00 0.00 0.00 1017.7
20260905231420 34 348 3.2 3.2 0.00 0.00 0.00 22 1020.1
20260905230916 34 241 1.6 4.8 0.00 0.00 0.00 24 1020.0
20260905230414 33 344 0.0 1.6 0.00 0.00 0.00 22 1020.2
20260905230103 -17 0.0 0.0 0.00 0.00 0.00 1017.8
20260905225913 33 38 1.6 3.2 0.00 0.00 0.00 23 1020.0
20260905225409 35 182 1.6 6.4 0.00 0.00 0.00 24 1020.1
20260905224903 34 326 0.0 1.6 0.00 0.00 0.00 21 1020.2
20260905224556 -17 0.0 0.0 0.00 0.00 0.00 1017.7
20260905224359 34 211 3.2 8.0 0.00 0.00 0.00 21 1020.1
20260905223854 34 44 1.6 3.2 0.00 0.00 0.00 24 1020.2
20260905223352 33 75 3.2 3.2 0.00 0.00 0.00 24 1020.1
20260905223058 -17 0.0 0.0 0.00 0.00 0.00 1017.8
20260905222851 34 263 0.0 3.2 0.00 0.00 0.00 24 1020.1
20260905222350 34 285 1.6 3.2 0.00 0.00 0.00 23 1020.3
20260905221847 35 222 0.0 3.2 0.00 0.00 0.00 25 1020.3
20260905221606 -17 0.0 0.0 0.00 0.00 0.00 1017.8
20260905221343 35 343 0.0 4.8 0.00 0.00 0.00 21 1020.2
20260905220839 35 307 0.0 3.2 0.00 0.00 0.00 22 1020.2